Year,Month,Day,Hour,Minute,Value (Times are PST for temperature in C)
2016,03,30,00,00,15.40
2016,03,30,00,01,15.30
2016,03,30,00,02,15.30
2016,03,30,00,03,15.30
2016,03,30,00,04,15.20
2016,03,30,00,05,15.30
2016,03,30,00,06,15.30
2016,03,30,00,07,15.30
2016,03,30,00,08,15.30
2016,03,30,00,09,15.30
2016,03,30,00,10,15.20
2016,03,30,00,11,15.10
2016,03,30,00,12,14.90
2016,03,30,00,13,14.70
2016,03,30,00,14,14.50
2016,03,30,00,15,14.30
2016,03,30,00,16,14.10
2016,03,30,00,17,13.90
2016,03,30,00,18,13.80
2016,03,30,00,19,13.60
2016,03,30,00,20,13.60
2016,03,30,00,21,13.60
2016,03,30,00,22,13.60
2016,03,30,00,23,13.60
2016,03,30,00,24,13.70
2016,03,30,00,25,13.70
2016,03,30,00,26,13.80
2016,03,30,00,27,13.80
2016,03,30,00,28,13.90
2016,03,30,00,29,13.90
2016,03,30,00,30,13.80
2016,03,30,00,31,13.80
2016,03,30,00,32,13.80
2016,03,30,00,33,13.80
2016,03,30,00,34,13.80
2016,03,30,00,35,13.80
2016,03,30,00,36,13.70
2016,03,30,00,37,13.70
2016,03,30,00,38,13.60
2016,03,30,00,39,13.40
2016,03,30,00,40,13.20
2016,03,30,00,41,13.10
2016,03,30,00,42,12.90
2016,03,30,00,43,12.70
2016,03,30,00,44,12.60
2016,03,30,00,45,12.40
2016,03,30,00,46,12.20
2016,03,30,00,47,12.10
2016,03,30,00,48,12.00
2016,03,30,00,49,11.90
2016,03,30,00,50,11.80
2016,03,30,00,51,11.70
2016,03,30,00,52,11.70
2016,03,30,00,53,11.60
2016,03,30,00,54,11.60
2016,03,30,00,55,11.50
2016,03,30,00,56,11.40
2016,03,30,00,57,11.40
2016,03,30,00,58,11.40
2016,03,30,00,59,11.40
2016,03,30,01,00,11.30
2016,03,30,01,01,11.30
2016,03,30,01,02,11.30
2016,03,30,01,03,11.30
2016,03,30,01,04,11.30
2016,03,30,01,05,11.30
2016,03,30,01,06,11.30
2016,03,30,01,07,11.40
2016,03,30,01,08,11.60
2016,03,30,01,09,11.80
2016,03,30,01,10,12.10
2016,03,30,01,11,12.30
2016,03,30,01,12,12.50
2016,03,30,01,13,12.70
2016,03,30,01,14,12.80
2016,03,30,01,15,12.90
2016,03,30,01,16,13.00
2016,03,30,01,17,13.10
2016,03,30,01,18,13.20
2016,03,30,01,19,13.40
2016,03,30,01,20,13.60
2016,03,30,01,21,13.80
2016,03,30,01,22,13.90
2016,03,30,01,23,14.10
2016,03,30,01,24,14.20
2016,03,30,01,25,14.20
2016,03,30,01,26,14.20
2016,03,30,01,27,14.20
2016,03,30,01,28,14.10
2016,03,30,01,29,13.90
2016,03,30,01,30,13.70
2016,03,30,01,31,13.50
2016,03,30,01,32,13.30
2016,03,30,01,33,13.10
2016,03,30,01,34,12.80
2016,03,30,01,35,12.60
2016,03,30,01,36,12.40
2016,03,30,01,37,12.20
2016,03,30,01,38,11.90
2016,03,30,01,39,11.80
2016,03,30,01,40,11.70
2016,03,30,01,41,11.60
2016,03,30,01,42,11.40
2016,03,30,01,43,11.30
2016,03,30,01,44,11.20
2016,03,30,01,45,11.00
2016,03,30,01,46,10.90
2016,03,30,01,47,10.80
2016,03,30,01,48,10.70
2016,03,30,01,49,10.60
2016,03,30,01,50,10.60
2016,03,30,01,51,10.50
2016,03,30,01,52,10.40
2016,03,30,01,53,10.30
2016,03,30,01,54,10.30
2016,03,30,01,55,10.30
2016,03,30,01,56,10.20
2016,03,30,01,57,10.20
2016,03,30,01,58,10.10
2016,03,30,01,59,10.10
2016,03,30,02,00,10.00
2016,03,30,02,01,9.90
2016,03,30,02,02,9.90
2016,03,30,02,03,9.80
2016,03,30,02,04,9.80
2016,03,30,02,05,9.70
2016,03,30,02,06,9.80
2016,03,30,02,07,9.70
2016,03,30,02,08,9.70
2016,03,30,02,09,9.70
2016,03,30,02,10,9.70
2016,03,30,02,11,9.70
2016,03,30,02,12,9.60
2016,03,30,02,13,9.60
2016,03,30,02,14,9.60
2016,03,30,02,15,9.60
2016,03,30,02,16,9.60
2016,03,30,02,17,9.60
2016,03,30,02,18,9.50
2016,03,30,02,19,9.50
2016,03,30,02,20,9.40
2016,03,30,02,21,9.40
2016,03,30,02,22,9.40
2016,03,30,02,23,9.40
2016,03,30,02,24,9.30
2016,03,30,02,25,9.30
2016,03,30,02,26,9.30
2016,03,30,02,27,9.20
2016,03,30,02,28,9.20
2016,03,30,02,29,9.20
2016,03,30,02,30,9.20
2016,03,30,02,31,9.10
2016,03,30,02,32,9.10
2016,03,30,02,33,9.10
2016,03,30,02,34,9.00
2016,03,30,02,35,9.00
2016,03,30,02,36,9.00
2016,03,30,02,37,8.90
2016,03,30,02,38,8.90
2016,03,30,02,39,8.90
2016,03,30,02,40,8.80
2016,03,30,02,41,8.80
2016,03,30,02,42,8.80
2016,03,30,02,43,8.80
2016,03,30,02,44,8.80
2016,03,30,02,45,8.70
2016,03,30,02,46,8.70
2016,03,30,02,47,8.70
2016,03,30,02,48,8.70
2016,03,30,02,49,8.70
2016,03,30,02,50,8.70
2016,03,30,02,51,8.60
2016,03,30,02,52,8.60
2016,03,30,02,53,8.60
2016,03,30,02,54,8.50
2016,03,30,02,55,8.50
2016,03,30,02,56,8.50
2016,03,30,02,57,8.40
2016,03,30,02,58,8.40
2016,03,30,02,59,8.40
2016,03,30,03,00,8.40
2016,03,30,03,01,8.40
2016,03,30,03,02,8.40
2016,03,30,03,03,8.40
2016,03,30,03,04,8.50
2016,03,30,03,05,8.60
2016,03,30,03,06,8.60
2016,03,30,03,07,8.50
2016,03,30,03,08,8.50
2016,03,30,03,09,8.40
2016,03,30,03,10,8.50
2016,03,30,03,11,8.50
2016,03,30,03,12,8.50
2016,03,30,03,13,8.40
2016,03,30,03,14,8.40
2016,03,30,03,15,8.50
2016,03,30,03,16,8.50
2016,03,30,03,17,8.50
2016,03,30,03,18,8.60
2016,03,30,03,19,8.60
2016,03,30,03,20,8.60
2016,03,30,03,21,8.60
2016,03,30,03,22,8.60
2016,03,30,03,23,8.60
2016,03,30,03,24,8.60
2016,03,30,03,25,8.70
2016,03,30,03,26,8.70
2016,03,30,03,27,8.70
2016,03,30,03,28,8.70
2016,03,30,03,29,8.80
2016,03,30,03,30,8.80
2016,03,30,03,31,8.80
2016,03,30,03,32,8.80
2016,03,30,03,33,8.80
2016,03,30,03,34,8.80
2016,03,30,03,35,8.80
2016,03,30,03,36,8.80
2016,03,30,03,37,8.80
2016,03,30,03,38,8.80
2016,03,30,03,39,8.80
2016,03,30,03,40,8.80
2016,03,30,03,41,8.80
2016,03,30,03,42,8.80
2016,03,30,03,43,8.80
2016,03,30,03,44,8.80
2016,03,30,03,45,8.80
2016,03,30,03,46,8.70
2016,03,30,03,47,8.70
2016,03,30,03,48,8.70
2016,03,30,03,49,8.60
2016,03,30,03,50,8.60
2016,03,30,03,51,8.60
2016,03,30,03,52,8.60
2016,03,30,03,53,8.60
2016,03,30,03,54,8.60
2016,03,30,03,55,8.60
2016,03,30,03,56,8.50
2016,03,30,03,57,8.50
2016,03,30,03,58,8.40
2016,03,30,03,59,8.40
2016,03,30,04,00,8.40
2016,03,30,04,01,8.40
2016,03,30,04,02,8.40
2016,03,30,04,03,8.30
2016,03,30,04,04,8.30
2016,03,30,04,05,8.30
2016,03,30,04,06,8.30
2016,03,30,04,07,8.20
2016,03,30,04,08,8.20
2016,03,30,04,09,8.20
2016,03,30,04,10,8.10
2016,03,30,04,11,8.10
2016,03,30,04,12,8.10
2016,03,30,04,13,8.00
2016,03,30,04,14,7.90
2016,03,30,04,15,7.90
2016,03,30,04,16,7.90
2016,03,30,04,17,7.90
2016,03,30,04,18,7.90
2016,03,30,04,19,7.90
2016,03,30,04,20,7.90
2016,03,30,04,21,7.80
2016,03,30,04,22,7.80
2016,03,30,04,23,7.70
2016,03,30,04,24,7.80
2016,03,30,04,25,7.80
2016,03,30,04,26,7.80
2016,03,30,04,27,7.80
2016,03,30,04,28,7.80
2016,03,30,04,29,7.80
2016,03,30,04,30,7.80
2016,03,30,04,31,7.80
2016,03,30,04,32,7.80
2016,03,30,04,33,7.80
2016,03,30,04,34,7.80
2016,03,30,04,35,7.80
2016,03,30,04,36,7.80
2016,03,30,04,37,7.80
2016,03,30,04,38,7.80
2016,03,30,04,39,7.80
2016,03,30,04,40,7.70
2016,03,30,04,41,7.70
2016,03,30,04,42,7.60
2016,03,30,04,43,7.60
2016,03,30,04,44,7.60
2016,03,30,04,45,7.60
2016,03,30,04,46,7.60
2016,03,30,04,47,7.60
2016,03,30,04,48,7.60
2016,03,30,04,49,7.60
2016,03,30,04,50,7.60
2016,03,30,04,51,7.60
2016,03,30,04,52,7.60
2016,03,30,04,53,7.60
2016,03,30,04,54,7.50
2016,03,30,04,55,7.50
2016,03,30,04,56,7.50
2016,03,30,04,57,7.50
2016,03,30,04,58,7.50
2016,03,30,04,59,7.50
2016,03,30,05,00,7.60
2016,03,30,05,01,7.50
2016,03,30,05,02,7.50
2016,03,30,05,03,7.50
2016,03,30,05,04,7.50
2016,03,30,05,05,7.50
2016,03,30,05,06,7.50
2016,03,30,05,07,7.40
2016,03,30,05,08,7.50
2016,03,30,05,09,7.40
2016,03,30,05,10,7.40
2016,03,30,05,11,7.40
2016,03,30,05,12,7.40
2016,03,30,05,13,7.40
2016,03,30,05,14,7.40
2016,03,30,05,15,7.40
2016,03,30,05,16,7.30
2016,03,30,05,17,7.30
2016,03,30,05,18,7.40
2016,03,30,05,19,7.40
2016,03,30,05,20,7.40
2016,03,30,05,21,7.40
2016,03,30,05,22,7.40
2016,03,30,05,23,7.40
2016,03,30,05,24,7.60
2016,03,30,05,25,7.60
2016,03,30,05,26,7.70
2016,03,30,05,27,7.70
2016,03,30,05,28,7.70
2016,03,30,05,29,7.70
2016,03,30,05,30,7.60
2016,03,30,05,31,7.60
2016,03,30,05,32,7.60
2016,03,30,05,33,7.60
2016,03,30,05,34,7.60
2016,03,30,05,35,7.60
2016,03,30,05,36,7.50
2016,03,30,05,37,7.50
2016,03,30,05,38,7.50
2016,03,30,05,39,7.40
2016,03,30,05,40,7.50
2016,03,30,05,41,7.50
2016,03,30,05,42,7.50
2016,03,30,05,43,7.50
2016,03,30,05,44,7.50
2016,03,30,05,45,7.60
2016,03,30,05,46,7.60
2016,03,30,05,47,7.60
2016,03,30,05,48,7.60
2016,03,30,05,49,7.50
2016,03,30,05,50,7.50
2016,03,30,05,51,7.50
2016,03,30,05,52,7.50
2016,03,30,05,53,7.50
2016,03,30,05,54,7.50
2016,03,30,05,55,7.50
2016,03,30,05,56,7.50
2016,03,30,05,57,7.50
2016,03,30,05,58,7.50
2016,03,30,05,59,7.50
2016,03,30,06,00,7.50
2016,03,30,06,01,7.50
2016,03,30,06,02,7.50
2016,03,30,06,03,7.50
2016,03,30,06,04,7.50
2016,03,30,06,05,7.40
2016,03,30,06,06,7.40
2016,03,30,06,07,7.40
2016,03,30,06,08,7.40
2016,03,30,06,09,7.40
2016,03,30,06,10,7.30
2016,03,30,06,11,7.30
2016,03,30,06,12,7.30
2016,03,30,06,13,7.30
2016,03,30,06,14,7.30
2016,03,30,06,15,7.30
2016,03,30,06,16,7.40
2016,03,30,06,17,7.40
2016,03,30,06,18,7.40
2016,03,30,06,19,7.40
2016,03,30,06,20,7.40
2016,03,30,06,21,7.40
2016,03,30,06,22,7.30
2016,03,30,06,23,7.30
2016,03,30,06,24,7.40
2016,03,30,06,25,7.40
2016,03,30,06,26,7.40
2016,03,30,06,27,7.30
2016,03,30,06,28,7.30
2016,03,30,06,29,7.30
2016,03,30,06,30,7.30
2016,03,30,06,31,7.30
2016,03,30,06,32,7.30
2016,03,30,06,33,7.30
2016,03,30,06,34,7.30
2016,03,30,06,35,7.40
2016,03,30,06,36,7.30
2016,03,30,06,37,7.30
2016,03,30,06,38,7.30
2016,03,30,06,39,7.30
2016,03,30,06,40,7.30
2016,03,30,06,41,7.30
2016,03,30,06,42,7.30
2016,03,30,06,43,7.30
2016,03,30,06,44,7.40
2016,03,30,06,45,7.40
2016,03,30,06,46,7.40
2016,03,30,06,47,7.50
2016,03,30,06,48,7.50
2016,03,30,06,49,7.50
2016,03,30,06,50,7.60
2016,03,30,06,51,7.60
2016,03,30,06,52,7.50
2016,03,30,06,53,7.50
2016,03,30,06,54,7.50
2016,03,30,06,55,7.50
2016,03,30,06,56,7.50
2016,03,30,06,57,7.40
2016,03,30,06,58,7.50
2016,03,30,06,59,7.40
2016,03,30,07,00,7.40
2016,03,30,07,01,7.40
2016,03,30,07,02,7.40
2016,03,30,07,03,7.40
2016,03,30,07,04,7.40
2016,03,30,07,05,7.40
2016,03,30,07,06,7.40
2016,03,30,07,07,7.40
2016,03,30,07,08,7.30
2016,03,30,07,09,7.30
2016,03,30,07,10,7.30
2016,03,30,07,11,7.30
2016,03,30,07,12,7.30
2016,03,30,07,13,7.30
2016,03,30,07,14,7.30
2016,03,30,07,15,7.30
2016,03,30,07,16,7.30
2016,03,30,07,17,7.30
2016,03,30,07,18,7.30
2016,03,30,07,19,7.30
2016,03,30,07,20,7.30
2016,03,30,07,21,7.30
2016,03,30,07,22,7.20
2016,03,30,07,23,7.20
2016,03,30,07,24,7.20
2016,03,30,07,25,7.20
2016,03,30,07,26,7.10
2016,03,30,07,27,7.10
2016,03,30,07,28,7.10
2016,03,30,07,29,7.10
2016,03,30,07,30,7.10
2016,03,30,07,31,7.20
2016,03,30,07,32,7.20
2016,03,30,07,33,7.20
2016,03,30,07,34,7.20
2016,03,30,07,35,7.20
2016,03,30,07,36,7.20
2016,03,30,07,37,7.20
2016,03,30,07,38,7.20
2016,03,30,07,39,7.20
2016,03,30,07,40,7.30
2016,03,30,07,41,7.20
2016,03,30,07,42,7.20
2016,03,30,07,43,7.20
2016,03,30,07,44,7.20
2016,03,30,07,45,7.20
2016,03,30,07,46,7.20
2016,03,30,07,47,7.30
2016,03,30,07,48,7.30
2016,03,30,07,49,7.30
2016,03,30,07,50,7.30
2016,03,30,07,51,7.40
2016,03,30,07,52,7.40
2016,03,30,07,53,7.40
2016,03,30,07,54,7.60
2016,03,30,07,55,7.60
2016,03,30,07,56,7.80
2016,03,30,07,57,8.00
2016,03,30,07,58,8.30
2016,03,30,07,59,8.70
2016,03,30,08,00,9.00
2016,03,30,08,01,9.30
2016,03,30,08,02,9.60
2016,03,30,08,03,9.70
2016,03,30,08,04,9.80
2016,03,30,08,05,9.90
2016,03,30,08,06,10.10
2016,03,30,08,07,10.00
2016,03,30,08,08,10.00
2016,03,30,08,09,10.00
2016,03,30,08,10,10.00
2016,03,30,08,11,10.10
2016,03,30,08,12,10.10
2016,03,30,08,13,10.10
2016,03,30,08,14,10.10
2016,03,30,08,15,10.10
2016,03,30,08,16,10.00
2016,03,30,08,17,9.90
2016,03,30,08,18,10.00
2016,03,30,08,19,9.90
2016,03,30,08,20,9.90
2016,03,30,08,21,9.90
2016,03,30,08,22,9.80
2016,03,30,08,23,9.80
2016,03,30,08,24,9.80
2016,03,30,08,25,9.90
2016,03,30,08,26,9.90
2016,03,30,08,27,9.90
2016,03,30,08,28,9.90
2016,03,30,08,29,9.90
2016,03,30,08,30,9.80
2016,03,30,08,31,9.80
2016,03,30,08,32,9.80
2016,03,30,08,33,9.70
2016,03,30,08,34,9.70
2016,03,30,08,35,9.60
2016,03,30,08,36,9.60
2016,03,30,08,37,9.50
2016,03,30,08,38,9.40
2016,03,30,08,39,9.40
2016,03,30,08,40,9.30
2016,03,30,08,41,9.30
2016,03,30,08,42,9.30
2016,03,30,08,43,9.30
2016,03,30,08,44,9.20
2016,03,30,08,45,9.20
2016,03,30,08,46,9.20
2016,03,30,08,47,9.20
2016,03,30,08,48,9.20
2016,03,30,08,49,9.20
2016,03,30,08,50,9.20
2016,03,30,08,51,9.20
2016,03,30,08,52,9.20
2016,03,30,08,53,9.20
2016,03,30,08,54,9.20
2016,03,30,08,55,9.20
2016,03,30,08,56,9.20
2016,03,30,08,57,9.20
2016,03,30,08,58,9.20
2016,03,30,08,59,9.20
2016,03,30,09,00,9.30
2016,03,30,09,01,9.30
2016,03,30,09,02,9.30
2016,03,30,09,03,9.30
2016,03,30,09,04,9.30
2016,03,30,09,05,9.30
2016,03,30,09,06,9.30
2016,03,30,09,07,9.40
2016,03,30,09,08,9.40
2016,03,30,09,09,9.40
2016,03,30,09,10,9.50
2016,03,30,09,11,9.60
2016,03,30,09,12,9.60
2016,03,30,09,13,9.60
2016,03,30,09,14,9.70
2016,03,30,09,15,9.70
2016,03,30,09,16,9.70
2016,03,30,09,17,9.70
2016,03,30,09,18,9.70
2016,03,30,09,19,9.70
2016,03,30,09,20,9.70
2016,03,30,09,21,9.70
2016,03,30,09,22,9.80
2016,03,30,09,23,9.80
2016,03,30,09,24,9.80
2016,03,30,09,25,9.80
2016,03,30,09,26,9.80
2016,03,30,09,27,9.90
2016,03,30,09,28,9.90
2016,03,30,09,29,9.90
2016,03,30,09,30,9.90
2016,03,30,09,31,10.00
2016,03,30,09,32,10.00
2016,03,30,09,33,10.10
2016,03,30,09,34,10.10
2016,03,30,09,35,10.20
2016,03,30,09,36,10.30
2016,03,30,09,37,10.30
2016,03,30,09,38,10.40
2016,03,30,09,39,10.50
2016,03,30,09,40,10.60
2016,03,30,09,41,10.70
2016,03,30,09,42,10.80
2016,03,30,09,43,10.90
2016,03,30,09,44,11.00
2016,03,30,09,45,11.10
2016,03,30,09,46,11.20
2016,03,30,09,47,11.30
2016,03,30,09,48,11.40
2016,03,30,09,49,11.50
2016,03,30,09,50,11.60
2016,03,30,09,51,11.70
2016,03,30,09,52,11.80
2016,03,30,09,53,11.90
2016,03,30,09,54,12.10
2016,03,30,09,55,12.20
2016,03,30,09,56,12.40
2016,03,30,09,57,12.60
2016,03,30,09,58,12.70
2016,03,30,09,59,12.80
2016,03,30,10,00,13.00
2016,03,30,10,01,13.20
2016,03,30,10,02,13.30
2016,03,30,10,03,13.40
2016,03,30,10,04,13.60
2016,03,30,10,05,13.70
2016,03,30,10,06,13.80
2016,03,30,10,07,13.90
2016,03,30,10,08,14.10
2016,03,30,10,09,14.20
2016,03,30,10,10,14.30
2016,03,30,10,11,14.40
2016,03,30,10,12,14.60
2016,03,30,10,13,14.60
2016,03,30,10,14,14.70
2016,03,30,10,15,14.70
2016,03,30,10,16,14.70
2016,03,30,10,17,14.70
2016,03,30,10,18,14.70
2016,03,30,10,19,14.60
2016,03,30,10,20,14.50
2016,03,30,10,21,14.50
2016,03,30,10,22,14.50
2016,03,30,10,23,14.40
2016,03,30,10,24,14.40
2016,03,30,10,25,14.40
2016,03,30,10,26,14.50
2016,03,30,10,27,14.60
2016,03,30,10,28,14.60
2016,03,30,10,29,14.70
2016,03,30,10,30,14.80
2016,03,30,10,31,14.90
2016,03,30,10,32,15.10
2016,03,30,10,33,15.20
2016,03,30,10,34,15.30
2016,03,30,10,35,15.40
2016,03,30,10,36,15.60
2016,03,30,10,37,15.70
2016,03,30,10,38,15.70
2016,03,30,10,39,15.80
2016,03,30,10,40,15.80
2016,03,30,10,41,15.80
2016,03,30,10,42,15.80
2016,03,30,10,43,15.80
2016,03,30,10,44,15.90
2016,03,30,10,45,16.00
2016,03,30,10,46,16.10
2016,03,30,10,47,16.20
2016,03,30,10,48,16.20
2016,03,30,10,49,16.10
2016,03,30,10,50,16.10
2016,03,30,10,51,16.00
2016,03,30,10,52,16.00
2016,03,30,10,53,16.10
2016,03,30,10,54,16.10
2016,03,30,10,55,16.10
2016,03,30,10,56,16.10
2016,03,30,10,57,16.20
2016,03,30,10,58,16.20
2016,03,30,10,59,16.30
2016,03,30,11,00,16.30
2016,03,30,11,01,16.30
2016,03,30,11,02,16.30
2016,03,30,11,03,16.40
2016,03,30,11,04,16.40
2016,03,30,11,05,16.40
2016,03,30,11,06,16.50
2016,03,30,11,07,16.60
2016,03,30,11,08,16.60
2016,03,30,11,09,16.50
2016,03,30,11,10,16.50
2016,03,30,11,11,16.50
2016,03,30,11,12,16.60
2016,03,30,11,13,16.70
2016,03,30,11,14,16.70
2016,03,30,11,15,16.80
2016,03,30,11,16,16.80
2016,03,30,11,17,16.80
2016,03,30,11,18,16.60
2016,03,30,11,19,16.40
2016,03,30,11,20,16.30
2016,03,30,11,21,16.30
2016,03,30,11,22,16.20
2016,03,30,11,23,16.20
2016,03,30,11,24,16.30
2016,03,30,11,25,16.30
2016,03,30,11,26,16.40
2016,03,30,11,27,16.40
2016,03,30,11,28,16.40
2016,03,30,11,29,16.40
2016,03,30,11,30,16.60
2016,03,30,11,31,16.60
2016,03,30,11,32,16.70
2016,03,30,11,33,16.80
2016,03,30,11,34,16.90
2016,03,30,11,35,16.80
2016,03,30,11,36,16.80
2016,03,30,11,37,16.90
2016,03,30,11,38,16.90
2016,03,30,11,39,16.90
2016,03,30,11,40,16.90
2016,03,30,11,41,16.90
2016,03,30,11,42,17.00
2016,03,30,11,43,17.00
2016,03,30,11,44,17.00
2016,03,30,11,45,17.10
2016,03,30,11,46,17.10
2016,03,30,11,47,17.20
2016,03,30,11,48,17.20
2016,03,30,11,49,17.20
2016,03,30,11,50,17.30
2016,03,30,11,51,17.30
2016,03,30,11,52,17.40
2016,03,30,11,53,17.40
2016,03,30,11,54,17.40
2016,03,30,11,55,17.40
2016,03,30,11,56,17.40
2016,03,30,11,57,17.30
2016,03,30,11,58,17.30
2016,03,30,11,59,17.20
2016,03,30,12,00,17.20
2016,03,30,12,01,17.20
2016,03,30,12,02,17.20
2016,03,30,12,03,17.20
2016,03,30,12,04,17.20
2016,03,30,12,05,17.20
2016,03,30,12,06,17.20
2016,03,30,12,07,17.10
2016,03,30,12,08,17.10
2016,03,30,12,09,17.10
2016,03,30,12,10,17.10
2016,03,30,12,11,17.20
2016,03,30,12,12,17.20
2016,03,30,12,13,17.20
2016,03,30,12,14,17.20
2016,03,30,12,15,17.20
2016,03,30,12,16,17.20
2016,03,30,12,17,17.20
2016,03,30,12,18,17.20
2016,03,30,12,19,17.20
2016,03,30,12,20,17.20
2016,03,30,12,21,17.20
2016,03,30,12,22,17.20
2016,03,30,12,23,17.20
2016,03,30,12,24,17.10
2016,03,30,12,25,17.10
2016,03,30,12,26,17.10
2016,03,30,12,27,17.10
2016,03,30,12,28,17.10
2016,03,30,12,29,17.00
2016,03,30,12,30,16.90
2016,03,30,12,31,16.80
2016,03,30,12,32,16.80
2016,03,30,12,33,16.70
2016,03,30,12,34,16.70
2016,03,30,12,35,16.70
2016,03,30,12,36,16.70
2016,03,30,12,37,16.70
2016,03,30,12,38,16.70
2016,03,30,12,39,16.70
2016,03,30,12,40,16.70
2016,03,30,12,41,16.60
2016,03,30,12,42,16.60
2016,03,30,12,43,16.60
2016,03,30,12,44,16.60
2016,03,30,12,45,16.60
2016,03,30,12,46,16.60
2016,03,30,12,47,16.70
2016,03,30,12,48,16.70
2016,03,30,12,49,16.70
2016,03,30,12,50,16.70
2016,03,30,12,51,16.60
2016,03,30,12,52,16.60
2016,03,30,12,53,16.50
2016,03,30,12,54,16.50
2016,03,30,12,55,16.60
2016,03,30,12,56,16.60
2016,03,30,12,57,16.60
2016,03,30,12,58,16.70
2016,03,30,12,59,16.70
2016,03,30,13,00,16.70
2016,03,30,13,01,16.70
2016,03,30,13,02,16.80
2016,03,30,13,03,16.70
2016,03,30,13,04,16.60
2016,03,30,13,05,16.50
2016,03,30,13,06,16.50
2016,03,30,13,07,16.40
2016,03,30,13,08,16.40
2016,03,30,13,09,16.40
2016,03,30,13,10,16.30
2016,03,30,13,11,16.30
2016,03,30,13,12,16.30
2016,03,30,13,13,16.30
2016,03,30,13,14,16.30
2016,03,30,13,15,16.30
2016,03,30,13,16,16.30
2016,03,30,13,17,16.40
2016,03,30,13,18,16.40
2016,03,30,13,19,16.50
2016,03,30,13,20,16.50
2016,03,30,13,21,16.50
2016,03,30,13,22,16.60
2016,03,30,13,23,16.60
2016,03,30,13,24,16.60
2016,03,30,13,25,16.50
2016,03,30,13,26,16.50
2016,03,30,13,27,16.50
2016,03,30,13,28,16.50
2016,03,30,13,29,16.50
2016,03,30,13,30,16.60
2016,03,30,13,31,16.60
2016,03,30,13,32,16.70
2016,03,30,13,33,16.80
2016,03,30,13,34,16.90
2016,03,30,13,35,16.90
2016,03,30,13,36,16.90
2016,03,30,13,37,17.00
2016,03,30,13,38,17.00
2016,03,30,13,39,16.90
2016,03,30,13,40,16.90
2016,03,30,13,41,16.90
2016,03,30,13,42,17.00
2016,03,30,13,43,17.10
2016,03,30,13,44,17.20
2016,03,30,13,45,17.20
2016,03,30,13,46,17.10
2016,03,30,13,47,17.10
2016,03,30,13,48,17.10
2016,03,30,13,49,17.10
2016,03,30,13,50,17.10
2016,03,30,13,51,17.10
2016,03,30,13,52,16.90
2016,03,30,13,53,16.80
2016,03,30,13,54,16.80
2016,03,30,13,55,16.70
2016,03,30,13,56,16.70
2016,03,30,13,57,16.60
2016,03,30,13,58,16.50
2016,03,30,13,59,16.40
2016,03,30,14,00,16.30
2016,03,30,14,01,16.30
2016,03,30,14,02,16.20
2016,03,30,14,03,16.20
2016,03,30,14,04,16.20
2016,03,30,14,05,16.10
2016,03,30,14,06,16.10
2016,03,30,14,07,16.00
2016,03,30,14,08,15.90
2016,03,30,14,09,16.00
2016,03,30,14,10,16.10
2016,03,30,14,11,16.10
2016,03,30,14,12,16.20
2016,03,30,14,13,16.20
2016,03,30,14,14,16.20
2016,03,30,14,15,16.10
2016,03,30,14,16,16.10
2016,03,30,14,17,16.10
2016,03,30,14,18,16.10
2016,03,30,14,19,16.10
2016,03,30,14,20,16.10
2016,03,30,14,22,16.10
2016,03,30,14,24,16.20
2016,03,30,14,25,16.20
2016,03,30,14,26,16.10
2016,03,30,14,27,16.10
2016,03,30,14,28,16.10
2016,03,30,14,29,16.10
2016,03,30,14,30,16.00
2016,03,30,14,31,15.90
2016,03,30,14,32,15.90
2016,03,30,14,33,15.90
2016,03,30,14,34,15.90
2016,03,30,14,35,15.80
2016,03,30,14,36,15.80
2016,03,30,14,37,15.80
2016,03,30,14,38,15.80
2016,03,30,14,39,15.90
2016,03,30,14,40,15.80
2016,03,30,14,41,15.80
2016,03,30,14,42,15.80
2016,03,30,14,43,15.90
2016,03,30,14,44,15.90
2016,03,30,14,45,15.90
2016,03,30,14,46,15.90
2016,03,30,14,47,15.90
2016,03,30,14,48,16.00
2016,03,30,14,49,16.00
2016,03,30,14,50,16.10
2016,03,30,14,51,16.10
2016,03,30,14,52,16.10
2016,03,30,14,53,16.20
2016,03,30,14,54,16.20
2016,03,30,14,55,16.30
2016,03,30,14,56,16.40
2016,03,30,14,57,16.40
2016,03,30,14,58,16.60
2016,03,30,14,59,16.60
2016,03,30,15,00,16.70
2016,03,30,15,01,16.70
2016,03,30,15,02,16.80
2016,03,30,15,03,16.80
2016,03,30,15,04,16.80
2016,03,30,15,05,16.80
2016,03,30,15,06,16.80
2016,03,30,15,07,16.80
2016,03,30,15,08,16.80
2016,03,30,15,09,16.80
2016,03,30,15,10,16.80
2016,03,30,15,11,16.80
2016,03,30,15,12,16.80
2016,03,30,15,13,16.80
2016,03,30,15,14,16.70
2016,03,30,15,15,16.70
2016,03,30,15,16,16.70
2016,03,30,15,17,16.70
2016,03,30,15,18,16.70
2016,03,30,15,19,16.70
2016,03,30,15,20,16.70
2016,03,30,15,21,16.60
2016,03,30,15,22,16.60
2016,03,30,15,23,16.70
2016,03,30,15,24,16.70
2016,03,30,15,25,16.70
2016,03,30,15,26,16.70
2016,03,30,15,27,16.80
2016,03,30,15,28,16.70
2016,03,30,15,29,16.70
2016,03,30,15,30,16.70
2016,03,30,15,31,16.60
2016,03,30,15,32,16.60
2016,03,30,15,33,16.60
2016,03,30,15,34,16.50
2016,03,30,15,35,16.40
2016,03,30,15,36,16.30
2016,03,30,15,37,16.20
2016,03,30,15,38,16.20
2016,03,30,15,39,16.10
2016,03,30,15,40,16.10
2016,03,30,15,41,16.10
2016,03,30,15,42,16.10
2016,03,30,15,43,16.20
2016,03,30,15,44,16.20
2016,03,30,15,45,16.30
2016,03,30,15,46,16.30
2016,03,30,15,47,16.20
2016,03,30,15,48,16.20
2016,03,30,15,49,16.30
2016,03,30,15,50,16.30
2016,03,30,15,51,16.30
2016,03,30,15,52,16.30
2016,03,30,15,53,16.30
2016,03,30,15,54,16.20
2016,03,30,15,55,16.20
2016,03,30,15,56,16.20
2016,03,30,15,57,16.20
2016,03,30,15,58,16.20
2016,03,30,15,59,16.20
2016,03,30,16,00,16.30
2016,03,30,16,01,16.30
2016,03,30,16,02,16.40
2016,03,30,16,03,16.40
2016,03,30,16,04,16.50
2016,03,30,16,05,16.50
2016,03,30,16,06,16.50
2016,03,30,16,07,16.50
2016,03,30,16,08,16.50
2016,03,30,16,09,16.50
2016,03,30,16,10,16.50
2016,03,30,16,11,16.50
2016,03,30,16,12,16.50
2016,03,30,16,13,16.50
2016,03,30,16,14,16.60
2016,03,30,16,15,16.60
2016,03,30,16,16,16.60
2016,03,30,16,17,16.60
2016,03,30,16,18,16.60
2016,03,30,16,19,16.60
2016,03,30,16,20,16.60
2016,03,30,16,21,16.60
2016,03,30,16,22,16.60
2016,03,30,16,23,16.60
2016,03,30,16,24,16.60
2016,03,30,16,25,16.60
2016,03,30,16,26,16.70
2016,03,30,16,27,16.70
2016,03,30,16,28,16.70
2016,03,30,16,29,16.80
2016,03,30,16,30,16.80
2016,03,30,16,31,16.80
2016,03,30,16,32,16.70
2016,03,30,16,33,16.70
2016,03,30,16,34,16.70
2016,03,30,16,35,16.70
2016,03,30,16,36,16.70
2016,03,30,16,37,16.70
2016,03,30,16,38,16.70
2016,03,30,16,39,16.70
2016,03,30,16,40,16.70
2016,03,30,16,41,16.70
2016,03,30,16,42,16.70
2016,03,30,16,43,16.70
2016,03,30,16,44,16.70
2016,03,30,16,45,16.70
2016,03,30,16,46,16.60
2016,03,30,16,47,16.60
2016,03,30,16,48,16.50
2016,03,30,16,49,16.50
2016,03,30,16,50,16.50
2016,03,30,16,51,16.40
2016,03,30,16,52,16.40
2016,03,30,16,53,16.50
2016,03,30,16,54,16.40
2016,03,30,16,55,16.40
2016,03,30,16,56,16.30
2016,03,30,16,57,16.30
2016,03,30,16,58,16.30
2016,03,30,16,59,16.30
2016,03,30,17,00,16.30
2016,03,30,17,01,16.30
2016,03,30,17,02,16.30
2016,03,30,17,03,16.30
2016,03,30,17,04,16.30
2016,03,30,17,05,16.30
2016,03,30,17,06,16.30
2016,03,30,17,07,16.40
2016,03,30,17,08,16.30
2016,03,30,17,09,16.30
2016,03,30,17,10,16.30
2016,03,30,17,11,16.40
2016,03,30,17,12,16.40
2016,03,30,17,13,16.50
2016,03,30,17,14,16.40
2016,03,30,17,15,16.40
2016,03,30,17,16,16.30
2016,03,30,17,17,16.30
2016,03,30,17,18,16.30
2016,03,30,17,19,16.20
2016,03,30,17,20,16.20
2016,03,30,17,21,16.20
2016,03,30,17,22,16.20
2016,03,30,17,23,16.20
2016,03,30,17,24,16.20
2016,03,30,17,25,16.20
2016,03,30,17,26,16.20
2016,03,30,17,27,16.20
2016,03,30,17,28,16.20
2016,03,30,17,29,16.20
2016,03,30,17,30,16.20
2016,03,30,17,31,16.30
2016,03,30,17,32,16.30
2016,03,30,17,33,16.30
2016,03,30,17,34,16.30
2016,03,30,17,35,16.30
2016,03,30,17,36,16.30
2016,03,30,17,37,16.20
2016,03,30,17,38,16.20
2016,03,30,17,39,16.20
2016,03,30,17,40,16.20